Date,TemperatureHighF,TemperatureAvgF,TemperatureLowF,DewpointHighF,DewpointAvgF,DewpointLowF,HumidityHigh,HumidityAvg,HumidityLow,PressureMaxIn,PressureMinIn,WindSpeedMaxMPH,WindSpeedAvgMPH,GustSpeedMaxMPH,PrecipitationSumIn
2013-1-1,81.0,78.3,75.0,-99.9,-99.9,-99.9,0,0,100,30.09,30.00,17,11,20,0.00
2013-1-2,81.0,78.8,75.0,-99.9,-99.9,-99.9,0,0,100,30.07,29.97,18,11,23,0.00
2013-1-3,81.0,76.8,73.0,-99.9,-99.9,-99.9,0,0,100,30.12,30.01,20,8,26,0.00
2013-1-4,81.0,78.8,74.0,-99.9,-99.9,-99.9,0,0,100,30.17,30.07,21,12,26,0.00
2013-1-5,81.0,80.1,79.0,-99.9,-99.9,-99.9,0,0,100,30.20,30.09,23,17,28,0.00
2013-1-6,81.0,80.0,78.0,-99.9,-99.9,-99.9,0,0,100,30.14,30.05,23,18,28,0.00
2013-1-7,81.0,79.0,75.0,-99.9,-99.9,-99.9,0,0,100,30.12,30.02,25,17,32,0.00
2013-1-8,81.0,78.8,76.0,-99.9,-99.9,-99.9,0,0,100,30.16,30.05,31,18,37,0.00
2013-1-9,81.0,79.5,75.0,-99.9,-99.9,-99.9,0,0,100,30.19,30.08,28,18,36,0.00
2013-1-10,80.0,78.6,75.0,-99.9,-99.9,-99.9,0,0,100,30.17,30.08,26,17,31,0.00
2013-1-11,80.0,77.7,75.0,-99.9,-99.9,-99.9,0,0,100,30.11,29.99,18,14,24,0.00
2013-1-12,81.0,76.0,72.0,-99.9,-99.9,-99.9,0,0,100,30.02,29.94,23,11,28,0.00
2013-1-13,81.0,77.7,75.0,-99.9,-99.9,-99.9,0,0,100,30.05,29.97,16,10,20,0.00
2013-1-14,80.0,77.7,76.0,-99.9,-99.9,-99.9,0,0,100,30.08,29.99,15,9,21,0.00
2013-1-15,79.0,76.2,72.0,-99.9,-99.9,-99.9,0,0,100,30.05,29.97,19,12,25,0.00
2013-1-16,79.0,76.3,72.0,-99.9,-99.9,-99.9,0,0,100,30.07,29.97,21,12,26,0.00
2013-1-17,80.0,77.0,73.0,-99.9,-99.9,-99.9,0,0,100,30.08,29.98,21,12,28,0.00
2013-1-18,80.0,76.8,73.0,-99.9,-99.9,-99.9,0,0,100,30.11,30.01,16,9,19,0.00
2013-1-19,80.0,77.9,74.0,-99.9,-99.9,-99.9,0,0,100,30.11,30.00,20,12,24,0.00
2013-1-20,80.0,77.3,74.0,-99.9,-99.9,-99.9,0,0,100,30.09,29.98,19,9,22,0.00
2013-1-21,80.0,77.1,72.0,-99.9,-99.9,-99.9,0,0,100,30.05,29.96,16,8,21,0.00
2013-1-22,82.0,78.2,75.0,-99.9,-99.9,-99.9,0,0,100,30.09,29.98,20,8,26,0.00
2013-1-23,81.0,78.0,74.0,-99.9,-99.9,-99.9,0,0,100,30.13,30.02,21,2,25,0.00
2013-1-24,80.0,78.1,75.0,-99.9,-99.9,-99.9,0,0,100,30.12,30.00,18,10,22,0.00
2013-1-25,81.0,77.3,73.0,-99.9,-99.9,-99.9,0,0,100,30.11,30.02,21,9,27,0.00
2013-1-26,80.0,77.6,74.0,-99.9,-99.9,-99.9,0,0,100,30.11,30.03,22,12,27,0.00
2013-1-27,80.0,78.2,74.0,-99.9,-99.9,-99.9,0,0,100,30.15,30.05,17,10,22,0.00
2013-1-28,80.0,78.8,76.0,-99.9,-99.9,-99.9,0,0,100,30.19,30.08,23,13,27,0.00
2013-1-29,79.0,77.1,74.0,-99.9,-99.9,-99.9,0,0,100,30.14,30.04,19,12,28,0.00
2013-1-30,80.0,77.1,74.0,-99.9,-99.9,-99.9,0,0,100,30.11,30.03,23,13,28,0.00
2013-1-31,79.0,77.5,74.0,-99.9,-99.9,-99.9,0,0,100,30.10,30.01,21,13,25,0.00
2013-2-1,79.0,76.4,72.0,-99.9,-99.9,-99.9,0,0,100,30.10,30.00,22,10,30,0.00
2013-2-2,81.0,77.4,71.0,-99.9,-99.9,-99.9,0,0,100,30.07,29.98,15,9,19,0.00
2013-2-3,81.0,77.0,73.0,-99.9,-99.9,-99.9,0,0,100,30.04,29.92,19,9,25,0.00
2013-2-4,80.0,76.2,70.0,-99.9,-99.9,-99.9,0,0,100,30.04,29.93,15,1,22,0.00
2013-2-5,80.0,75.6,71.0,-99.9,-99.9,-99.9,0,0,100,30.07,29.97,18,8,23,0.00
2013-2-6,80.0,76.3,72.0,-99.9,-99.9,-99.9,0,0,100,30.05,29.96,21,9,25,0.00
2013-2-7,80.0,77.2,73.0,-99.9,-99.9,-99.9,0,0,100,30.02,29.92,21,4,25,0.00
2013-2-8,80.0,77.2,72.0,-99.9,-99.9,-99.9,0,0,100,30.04,29.93,22,11,27,0.00
2013-2-9,80.0,77.2,73.0,-99.9,-99.9,-99.9,0,0,100,30.05,29.96,17,11,22,0.00
2013-2-10,80.0,77.0,72.0,-99.9,-99.9,-99.9,0,0,100,30.10,30.00,21,9,26,0.00
2013-2-11,78.0,77.1,74.0,-99.9,-99.9,-99.9,0,0,100,30.13,30.04,24,17,32,0.00
2013-2-12,79.0,77.2,75.0,-99.9,-99.9,-99.9,0,0,100,30.12,30.05,19,14,25,0.00
2013-2-13,80.0,76.3,71.0,-99.9,-99.9,-99.9,0,0,100,30.11,30.00,16,1,22,0.00
2013-2-14,80.0,77.6,75.0,-99.9,-99.9,-99.9,0,0,100,30.11,30.01,15,10,22,0.00
2013-2-15,83.0,78.2,75.0,-99.9,-99.9,-99.9,0,0,100,30.10,29.98,18,10,26,0.00
2013-2-16,83.0,78.8,74.0,-99.9,-99.9,-99.9,0,0,100,30.05,29.95,19,10,25,0.00
2013-2-17,82.0,77.9,74.0,-99.9,-99.9,-99.9,0,0,100,30.08,29.98,23,8,27,0.00
2013-2-18,81.0,77.5,73.0,-99.9,-99.9,-99.9,0,0,100,30.13,30.03,18,8,22,0.00
2013-2-19,80.0,77.3,74.0,-99.9,-99.9,-99.9,0,0,100,30.13,30.02,21,12,30,0.00
2013-2-20,81.0,77.2,74.0,-99.9,-99.9,-99.9,0,0,100,30.08,29.95,21,12,29,0.00
2013-2-21,82.0,78.4,74.0,-99.9,-99.9,-99.9,0,0,100,30.06,29.94,20,8,25,0.00
2013-2-22,80.0,77.3,73.0,-99.9,-99.9,-99.9,0,0,100,30.09,29.99,16,9,21,0.00
2013-2-23,80.0,78.0,77.0,-99.9,-99.9,-99.9,0,0,100,30.07,29.99,21,11,24,0.00
2013-2-24,80.0,77.8,73.0,-99.9,-99.9,-99.9,0,0,100,30.06,29.94,17,9,21,0.00
2013-2-25,79.0,77.1,74.0,-99.9,-99.9,-99.9,0,0,100,30.02,29.91,21,11,26,0.00
2013-2-26,80.0,77.8,76.0,-99.9,-99.9,-99.9,0,0,100,30.06,29.96,22,14,30,0.00
2013-2-27,85.0,78.9,74.0,-99.9,-99.9,-99.9,0,0,100,30.06,29.94,19,10,27,0.00
2013-2-28,80.0,77.5,74.0,-99.9,-99.9,-99.9,0,0,100,30.04,29.91,22,11,26,0.00
2013-3-1,81.0,77.5,74.0,-99.9,-99.9,-99.9,0,0,100,30.00,29.87,17,9,21,0.00
2013-3-2,82.0,76.9,73.0,-99.9,-99.9,-99.9,0,0,100,29.98,29.87,19,10,22,0.00
2013-3-3,84.0,78.2,73.0,-99.9,-99.9,-99.9,0,0,100,30.01,29.89,14,-22,16,0.00
2013-3-4,85.0,78.3,74.0,-99.9,-99.9,-99.9,0,0,100,30.06,29.96,12,5,19,0.00
2013-3-5,78.0,76.4,73.0,-99.9,-99.9,-99.9,0,0,100,30.10,30.01,12,6,19,0.00
2013-3-6,79.0,76.4,72.0,-99.9,-99.9,-99.9,0,0,100,30.09,29.99,13,7,18,0.00
2013-3-7,82.0,77.8,73.0,-99.9,-99.9,-99.9,0,0,100,30.06,29.97,12,5,15,0.00
2013-3-8,82.0,77.2,74.0,-99.9,-99.9,-99.9,0,0,100,30.07,29.98,9,5,12,0.00
2013-3-9,82.0,74.8,71.0,-99.9,-99.9,-99.9,0,0,100,30.06,29.97,9,-9,15,0.00
2013-3-10,81.0,76.9,74.0,-99.9,-99.9,-99.9,0,0,100,30.04,29.95,10,4,14,0.00
2013-3-11,79.0,76.6,74.0,-99.9,-99.9,-99.9,0,0,100,30.04,29.95,14,7,18,0.00
2013-3-12,78.0,76.8,74.0,-99.9,-99.9,-99.9,0,0,100,30.09,29.97,17,11,22,0.00
2013-3-13,79.0,77.0,75.0,-99.9,-99.9,-99.9,0,0,100,30.06,29.95,18,12,24,0.00
2013-3-14,79.0,76.9,75.0,-99.9,-99.9,-99.9,0,0,100,30.04,29.90,18,10,22,0.00
2013-3-15,82.0,76.4,70.0,-99.9,-99.9,-99.9,0,0,100,30.03,29.92,9,5,14,0.00
2013-3-16,80.0,76.8,73.0,-99.9,-99.9,-99.9,0,0,100,30.05,29.95,12,7,18,0.00
2013-3-17,79.0,77.5,75.0,-99.9,-99.9,-99.9,0,0,100,30.09,29.98,19,12,28,0.00
2013-3-18,80.0,77.4,73.0,-99.9,-99.9,-99.9,0,0,100,30.09,29.99,22,14,27,0.00
2013-3-19,80.0,77.4,74.0,-99.9,-99.9,-99.9,0,0,100,30.04,29.90,20,12,29,0.00
2013-3-20,84.0,78.5,74.0,-99.9,-99.9,-99.9,0,0,100,29.98,29.84,21,10,26,0.00
2013-3-21,87.0,80.8,77.0,-99.9,-99.9,-99.9,0,0,100,29.96,29.82,18,9,22,0.00
2013-3-22,84.0,79.3,76.0,-99.9,-99.9,-99.9,0,0,100,30.04,29.91,22,8,25,0.00
2013-3-23,81.0,78.9,76.0,-99.9,-99.9,-99.9,0,0,100,30.06,29.93,20,3,24,0.00
2013-3-24,80.0,78.8,76.0,-99.9,-99.9,-99.9,0,0,100,30.01,29.86,24,12,29,0.00
2013-3-25,83.0,79.3,76.0,-99.9,-99.9,-99.9,0,0,100,29.99,29.86,24,12,30,0.00
2013-3-26,86.0,80.9,76.0,-99.9,-99.9,-99.9,0,0,100,30.02,29.89,18,9,21,0.00
2013-3-27,85.0,79.6,75.0,-99.9,-99.9,-99.9,0,0,100,30.03,29.93,15,8,19,0.00
2013-3-28,83.0,79.6,76.0,-99.9,-99.9,-99.9,0,0,100,30.03,29.93,12,7,17,0.00
2013-3-29,80.0,76.2,73.0,-99.9,-99.9,-99.9,0,0,100,30.11,29.97,19,10,29,0.00
2013-3-30,79.0,76.5,74.0,-99.9,-99.9,-99.9,0,0,100,30.12,30.03,16,10,26,0.00
2013-3-31,80.0,76.9,74.0,-99.9,-99.9,-99.9,0,0,100,30.11,30.04,23,11,31,0.00
2013-4-1,81.0,79.0,77.0,-99.9,-99.9,-99.9,0,0,100,30.09,29.99,25,17,30,0.00
2013-4-2,85.0,80.4,76.0,-99.9,-99.9,-99.9,0,0,100,30.05,29.96,20,11,25,0.00
2013-4-3,83.0,79.6,76.0,-99.9,-99.9,-99.9,0,0,100,30.06,29.94,20,10,25,0.00
2013-4-4,81.0,78.7,76.0,-99.9,-99.9,-99.9,0,0,100,30.07,29.97,26,5,30,0.00
2013-4-5,80.0,78.5,76.0,-99.9,-99.9,-99.9,0,0,100,30.07,29.93,21,13,27,0.00
2013-4-6,85.0,80.2,75.0,-99.9,-99.9,-99.9,0,0,100,30.03,29.92,22,-12,28,0.00
2013-4-7,85.0,79.9,76.0,-99.9,-99.9,-99.9,0,0,100,30.04,29.93,19,9,26,0.00
2013-4-8,81.0,79.9,79.0,-99.9,-99.9,-99.9,0,0,100,30.04,29.94,22,14,27,0.00
2013-4-9,81.0,79.4,76.0,-99.9,-99.9,-99.9,0,0,100,30.05,29.93,21,15,26,0.00
2013-4-10,82.0,79.7,77.0,-99.9,-99.9,-99.9,0,0,100,30.03,29.93,19,12,29,0.00
2013-4-11,81.0,79.3,76.0,-99.9,-99.9,-99.9,0,0,100,30.03,29.93,22,15,28,0.00
2013-4-12,81.0,79.2,76.0,-99.9,-99.9,-99.9,0,0,100,30.01,29.92,21,14,29,0.00
2013-4-13,82.0,79.1,75.0,-99.9,-99.9,-99.9,0,0,100,30.00,29.90,24,13,30,0.00
2013-4-14,82.0,79.8,77.0,-99.9,-99.9,-99.9,0,0,100,30.02,29.92,26,14,32,0.00
2013-4-15,82.0,79.4,77.0,-99.9,-99.9,-99.9,0,0,100,30.04,29.96,22,13,27,0.00
2013-4-16,81.0,77.1,73.0,-99.9,-99.9,-99.9,0,0,100,30.04,29.95,21,9,27,0.00
2013-4-17,81.0,77.4,73.0,-99.9,-99.9,-99.9,0,0,100,30.01,29.91,22,-31,30,0.00
2013-4-18,81.0,78.5,74.0,-99.9,-99.9,-99.9,0,0,100,30.03,29.93,26,17,31,0.00
2013-4-19,80.0,79.4,77.0,-99.9,-99.9,-99.9,0,0,100,30.07,29.97,27,22,32,0.00
2013-4-20,81.0,79.3,77.0,-99.9,-99.9,-99.9,0,0,100,30.07,29.97,25,17,30,0.00
2013-4-21,81.0,79.0,76.0,-99.9,-99.9,-99.9,0,0,100,30.06,29.97,17,11,23,0.00
2013-4-22,81.0,78.0,73.0,-99.9,-99.9,-99.9,0,0,100,30.02,29.93,19,12,22,0.00
2013-4-23,81.0,77.8,74.0,-99.9,-99.9,-99.9,0,0,100,30.00,29.89,23,-4,28,0.00
2013-4-24,81.0,77.9,75.0,-99.9,-99.9,-99.9,0,0,100,30.01,29.92,17,7,23,0.00
2013-4-25,82.0,78.0,74.0,-99.9,-99.9,-99.9,0,0,100,30.03,29.94,13,7,17,0.00
2013-4-26,83.0,78.7,75.0,-99.9,-99.9,-99.9,0,0,100,30.02,29.95,11,6,14,0.00
2013-4-27,81.0,78.1,75.0,-99.9,-99.9,-99.9,0,0,100,30.00,29.91,18,2,22,0.00
2013-4-28,81.0,78.1,74.0,-99.9,-99.9,-99.9,0,0,100,29.98,29.90,20,2,25,0.00
2013-4-29,81.0,78.7,75.0,-99.9,-99.9,-99.9,0,0,100,29.98,29.91,18,11,21,0.00
2013-4-30,81.0,78.8,74.0,-99.9,-99.9,-99.9,0,0,100,30.00,29.93,20,12,24,0.00
2013-5-1,81.0,79.1,76.0,-99.9,-99.9,-99.9,0,0,100,29.98,29.89,24,12,29,0.00
2013-5-2,82.0,79.4,77.0,-99.9,-99.9,-99.9,0,0,100,29.94,29.84,16,9,20,0.00
2013-5-3,85.0,81.2,78.0,-99.9,-99.9,-99.9,0,0,100,29.91,29.81,10,5,14,0.00
2013-5-4,87.0,82.5,78.0,-99.9,-99.9,-99.9,0,0,100,29.87,29.75,12,-22,14,0.00
2013-5-5,86.0,81.5,79.0,-99.9,-99.9,-99.9,0,0,100,29.93,29.78,10,-3,14,0.00
2013-5-6,86.0,80.6,77.0,-99.9,-99.9,-99.9,0,0,100,30.00,29.88,13,-9,17,0.00
2013-5-7,84.0,79.7,76.0,-99.9,-99.9,-99.9,0,0,100,30.08,29.92,17,6,19,0.00
2013-5-8,83.0,78.8,76.0,-99.9,-99.9,-99.9,0,0,100,30.11,30.00,19,9,24,0.00
2013-5-9,82.0,78.4,75.0,-99.9,-99.9,-99.9,0,0,100,30.12,30.01,20,12,28,0.00
2013-5-10,83.0,77.3,72.0,-99.9,-99.9,-99.9,0,0,100,30.11,29.91,17,11,22,0.00
2013-5-11,83.0,78.4,73.0,-99.9,-99.9,-99.9,0,0,100,30.05,29.92,15,-15,16,0.00
2013-5-12,84.0,78.9,76.0,-99.9,-99.9,-99.9,0,0,100,30.00,29.92,10,5,14,0.00
2013-5-13,83.0,79.8,76.0,-99.9,-99.9,-99.9,0,0,100,30.02,29.94,14,-9,21,0.00
2013-5-14,86.0,81.4,77.0,-99.9,-99.9,-99.9,0,0,100,30.02,29.93,17,1,22,0.00
2013-5-15,82.0,80.0,78.0,-99.9,-99.9,-99.9,0,0,100,30.01,29.94,20,8,23,0.00
2013-5-16,82.0,75.9,78.0,-99.9,-99.9,-99.9,0,0,100,30.02,29.93,18,10,21,0.00
2013-5-17,84.0,80.8,78.0,-99.9,-99.9,-99.9,0,0,100,30.06,29.96,10,6,18,0.00
2013-5-18,82.0,80.1,77.0,-99.9,-99.9,-99.9,0,0,100,30.06,29.98,19,11,23,0.00
2013-5-19,83.0,80.3,77.0,-99.9,-99.9,-99.9,0,0,100,30.04,29.95,21,12,26,0.00
2013-5-20,82.0,80.1,77.0,-99.9,-99.9,-99.9,0,0,100,30.03,29.95,24,16,28,0.00
2013-5-21,83.0,80.1,76.0,-99.9,-99.9,-99.9,0,0,100,30.01,29.93,22,16,27,0.00
2013-5-22,80.0,77.6,74.0,-99.9,-99.9,-99.9,0,0,100,30.03,29.93,32,14,36,0.00
2013-5-23,82.0,79.9,76.0,-99.9,-99.9,-99.9,0,0,100,30.04,29.96,28,17,31,0.00
2013-5-24,82.0,79.7,77.0,-99.9,-99.9,-99.9,0,0,100,30.05,29.95,24,15,28,0.00
2013-5-25,84.0,80.0,76.0,-99.9,-99.9,-99.9,0,0,100,30.05,29.95,20,11,25,0.00
2013-5-26,83.0,80.7,78.0,-99.9,-99.9,-99.9,0,0,100,30.06,29.98,16,9,23,0.00
2013-5-27,83.0,79.8,74.0,-99.9,-99.9,-99.9,0,0,100,30.07,29.97,22,8,33,0.00
2013-5-28,83.0,80.0,76.0,-99.9,-99.9,-99.9,0,0,100,30.06,29.98,24,12,28,0.00
2013-5-29,83.0,81.1,79.0,-99.9,-99.9,-99.9,0,0,100,30.05,29.97,22,16,26,0.00
2013-5-30,82.0,80.4,76.0,-99.9,-99.9,-99.9,0,0,100,30.06,29.98,25,10,37,0.00
2013-5-31,83.0,79.6,76.0,-99.9,-99.9,-99.9,0,0,100,30.08,29.99,20,7,23,0.00
2013-6-1,84.0,81.0,77.0,-99.9,-99.9,-99.9,0,0,100,30.06,29.99,10,5,13,0.00
2013-6-2,84.0,81.1,78.0,-99.9,-99.9,-99.9,0,0,100,30.06,29.98,10,5,20,0.00
2013-6-3,85.0,81.1,78.0,-99.9,-99.9,-99.9,0,0,100,30.05,29.96,24,7,32,0.00
2013-6-4,87.0,81.9,79.0,-99.9,-99.9,-99.9,0,0,100,30.06,29.96,15,6,24,0.00
2013-6-5,85.0,81.8,80.0,-99.9,-99.9,-99.9,0,0,100,30.03,29.92,12,5,18,0.00
2013-6-6,84.0,81.6,79.0,-99.9,-99.9,-99.9,0,0,100,30.03,29.95,9,5,17,0.00
2013-6-7,84.0,80.6,76.0,-99.9,-99.9,-99.9,0,0,100,30.03,29.96,11,6,19,0.00
2013-6-8,84.0,80.6,77.0,-99.9,-99.9,-99.9,0,0,100,30.03,29.95,16,8,19,0.00
2013-6-9,85.0,81.7,80.0,-99.9,-99.9,-99.9,0,0,100,30.05,29.98,21,12,27,0.00
2013-6-10,83.0,81.6,79.0,-99.9,-99.9,-99.9,0,0,100,30.06,29.98,20,12,24,0.00
2013-6-11,83.0,81.1,78.0,-99.9,-99.9,-99.9,0,0,100,30.07,29.99,21,10,25,0.00
2013-6-12,83.0,80.2,75.0,-99.9,-99.9,-99.9,0,0,100,30.09,30.00,19,7,21,0.00
2013-6-13,84.0,81.8,80.0,-99.9,-99.9,-99.9,0,0,100,30.06,29.98,18,10,22,0.00
2013-6-14,87.0,82.6,78.0,-99.9,-99.9,-99.9,0,0,100,30.02,29.94,19,10,24,0.00
2013-6-15,89.0,83.2,79.0,-99.9,-99.9,-99.9,0,0,100,30.06,29.95,19,10,24,0.00
2013-6-16,84.0,82.2,79.0,-99.9,-99.9,-99.9,0,0,100,30.06,29.97,18,10,25,0.00
2013-6-17,83.0,82.2,81.0,-99.9,-99.9,-99.9,0,0,100,30.06,30.01,15,9,22,0.00
2013-6-18,84.0,82.2,80.0,-99.9,-99.9,-99.9,0,0,100,30.06,29.98,14,9,22,0.00
2013-6-19,82.0,78.5,74.0,-99.9,-99.9,-99.9,0,0,100,30.04,29.97,17,10,24,0.00